カタログに戻る

STARLINK-2190

運用中通信VLEO
NORAD 48564·PAYLOAD·🇺🇸 United States

打ち上げ May 15, 2021 から Cape Canaveral Space Force Station

Loading…

次のパス (今後24時間)

TLE

最新Source: CelesTrak SupGP

元期: Sep 15, 2026, 02:38 UTC

1 48564C 21041M   26258.11020833  .00050483  00000+0  16230-2 0  2587
2 48564  53.1602 325.1910 0001109  87.3215 253.4103 15.31684846    19

AllMySatでSTARLINK-2190をリアルタイム追跡

Download on the App Store